Temp
-10 -10 -10 -10 -9 -9 -9 -9 -9 -9 -9 -9 -9 -9 -9 -9 -8 -8 -8 -8 -9 -9 -9 -9 -9 -9 -9 -9 -9 -8 -8 -8 -8 -8 -7 -8 -8 -8 -8 -8 -8 -8 -8 -8 -8
-10 -10 -10 -10 -10 -10 -9 -9 -9 -9 -9 -9 -9 -9 -9 -8 -8 -9 -9 -9 -9 -9 -9 -9 -9 -9 -9 -9 -9 -8 -9 -8 -8 -8 -8 -8 -8 -8 -8 -8 -8 -8 -8 -8 -8
-10 -10 -10 -10 -10 -10 -10 -10 -10 -10 -9 -9 -9 -9 -9 -9 -9 -9 -9 -9 -9 -9 -9 -9 -9 -9 -9 -9 -9 -9 -9 -9 -8 -8 -8 -8 -8 -8 -8 -8 -8 -8 -8 -9 -8
-10 -10 -10 -10 -10 -10 -10 -10 -10 -10 -10 -10 -10 -10 -10 -10 -9 -9 -9 -9 -9 -9 -9 -9 -9 -9 -9 -9 -9 -9 -9 -8 -8 -8 -8 -8 -8 -8 -8 -9 -8 -8 -8 -9 -9
-11 -11 -10 -10 -10 -10 -10 -10 -10 -10 -10 -10 -10 -10 -10 -10 -10 -10 -10 -10 -9 -9 -9 -9 -9 -9 -9 -9 -9 -9 -9 -9 -8 -8 -8 -8 -8 -8 -9 -9 -8 -9 -9 -9 -9
-11 -11 -11 -11 -11 -11 -10 -10 -10 -10 -10 -10 -10 -10 -10 -10 -10 -10 -10 -10 -10 -10 -10 -9 -9 -10 -9 -9 -9 -9 -9 -9 -9 -9 -9 -9 -9 -9 -10 -9 -9 -9 -10 -9 -9
-12 -11 -11 -11 -11 -11 -11 -11 -11 -11 -11 -10 -10 -10 -10 -10 -10 -10 -10 -10 -10 -10 -10 -10 -10 -10 -9 -9 -9 -9 -9 -9 -9 -9 -9 -9 -10 -10 -10 -10 -10 -10 -10 -10 -10
-13 -12 -12 -12 -11 -11 -11 -11 -11 -11 -11 -11 -11 -11 -11 -11 -11 -10 -10 -10 -11 -11 -10 -10 -10 -10 -10 -10 -10 -10 -10 -10 -10 -10 -10 -10 -11 -10 -10 -10 -10 -10 -10 -10 -10
-13 -13 -13 -13 -12 -12 -12 -12 -12 -12 -12 -11 -11 -11 -11 -11 -11 -11 -11 -11 -11 -11 -11 -11 -11 -11 -11 -10 -10 -10 -10 -10 -10 -11 -11 -11 -11 -11 -10 -10 -10 -11 -10 -10 -10
-13 -13 -13 -13 -13 -13 -13 -12 -12 -12 -12 -12 -12 -12 -12 -12 -12 -12 -11 -11 -12 -12 -11 -11 -11 -11 -11 -11 -11 -11 -11 -11 -11 -11 -11 -11 -11 -11 -10 -10 -11 -11 -11 -11 -11
-14 -14 -14 -14 -14 -14 -14 -14 -13 -13 -13 -13 -12 -12 -12 -12 -12 -12 -12 -12 -12 -12 -12 -12 -11 -11 -12 -11 -11 -11 -11 -11 -11 -11 -11 -11 -11 -11 -11 -11 -11 -11 -11 -11 -11
-15 -15 -15 -14 -14 -14 -14 -14 -14 -13 -13 -13 -13 -13 -12 -12 -12 -12 -12 -12 -12 -12 -12 -12 -12 -12 -12 -12 -12 -12 -11 -12 -11 -11 -11 -11 -11 -11 -11 -11 -11 -11 -11 -12 -12
-15 -15 -15 -14 -15 -15 -14 -14 -14 -14 -13 -13 -14 -13 -13 -13 -12 -12 -12 -12 -12 -12 -12 -12 -12 -12 -12 -12 -12 -12 -12 -12 -12 -12 -12 -11 -11 -12 -12 -12 -12 -12 -12 -12 -12
-15 -15 -15 -15 -15 -15 -14 -15 -15 -14 -14 -13 -14 -13 -13 -13 -13 -13 -13 -12 -12 -12 -12 -12 -12 -12 -12 -12 -12 -12 -12 -12 -12 -12 -12 -12 -11 -12 -12 -12 -12 -12 -12 -12 -12
-15 -15 -15 -15 -15 -15 -15 -15 -15 -15 -15 -14 -13 -14 -14 -14 -14 -14 -13 -13 -13 -13 -13 -13 -13 -13 -13 -13 -13 -13 -13 -13 -13 -12 -12 -12 -12 -12 -12 -12 -12 -12 -12 -12 -12
-16 -15 -15 -15 -15 -15 -15 -15 -15 -15 -14 -14 -14 -14 -14 -14 -14 -14 -15 -14 -14 -14 -14 -14 -14 -14 -14 -14 -14 -14 -14 -13 -13 -13 -12 -13 -12 -12 -13 -13 -14 -13 -13 -12 -12
-17 -16 -16 -15 -15 -15 -15 -15 -15 -15 -15 -15 -15 -15 -15 -15 -15 -15 -15 -15 -15 -15 -14 -14 -14 -14 -14 -14 -14 -14 -14 -14 -13 -13 -13 -13 -12 -13 -13 -14 -13 -13 -13 -13 -13
-18 -17 -17 -17 -16 -16 -16 -16 -15 -15 -15 -16 -16 -16 -16 -16 -15 -15 -15 -15 -15 -15 -15 -15 -15 -15 -15 -15 -15 -15 -15 -15 -14 -13 -13 -13 -12 -13 -13 -14 -14 -14 -13 -13 -13
-19 -19 -19 -19 -18 -18 -18 -17 -16 -17 -17 -17 -16 -16 -16 -16 -16 -16 -16 -16 -16 -16 -15 -15 -15 -15 -15 -15 -15 -15 -15 -15 -15 -14 -13 -13 -12 -13 -14 -15 -15 -15 -14 -14 -14
-19 -19 -19 -19 -19 -19 -19 -18 -18 -19 -19 -18 -18 -17 -17 -17 -17 -17 -17 -16 -16 -16 -16 -16 -15 -15 -15 -15 -15 -16 -16 -15 -15 -15 -14 -13 -13 -13 -14 -14 -15 -15 -15 -15 -14
-20 -20 -20 -20 -20 -20 -19 -19 -19 -20 -19 -19 -19 -19 -19 -18 -18 -18 -17 -18 -18 -17 -17 -17 -16 -15 -16 -16 -16 -16 -16 -16 -16 -16 -15 -14 -13 -14 -15 -16 -17 -17 -16 -15 -14
-21 -21 -20 -21 -20 -20 -19 -20 -20 -20 -20 -20 -19 -20 -20 -19 -19 -19 -19 -19 -19 -18 -18 -18 -17 -17 -17 -16 -17 -16 -16 -17 -17 -16 -16 -15 -13 -15 -16 -16 -17 -17 -16 -15 -15
-21 -21 -21 -21 -20 -20 -20 -20 -20 -20 -20 -20 -20 -20 -20 -20 -20 -20 -20 -20 -19 -19 -19 -19 -18 -18 -18 -18 -17 -17 -17 -17 -17 -17 -16 -17 -14 -15 -15 -17 -18 -17 -16 -16 -15
-22 -21 -21 -21 -21 -21 -21 -20 -20 -20 -21 -21 -21 -21 -21 -21 -21 -20 -21 -21 -21 -21 -20 -20 -19 -19 -19 -20 -19 -18 -19 -18 -18 -17 -17 -16 -16 -15 -17 -18 -18 -17 -16 -15 -15
-22 -21 -21 -21 -21 -21 -22 -21 -21 -21 -21 -22 -21 -21 -22 -22 -22 -21 -22 -21 -21 -21 -21 -21 -20 -20 -20 -20 -20 -19 -19 -19 -19 -19 -19 -17 -18 -16 -18 -17 -17 -17 -16 -15 -15
-22 -22 -22 -22 -22 -22 -22 -21 -21 -21 -22 -22 -22 -22 -23 -22 -22 -22 -22 -22 -21 -21 -21 -21 -21 -21 -21 -21 -21 -20 -20 -20 -21 -21 -21 -20 -18 -20 -18 -18 -18 -18 -17 -16 -16
-23 -23 -23 -22 -22 -22 -21 -21 -22 -22 -22 -22 -22 -23 -22 -22 -23 -23 -22 -22 -22 -22 -22 -22 -22 -22 -21 -21 -22 -21 -20 -21 -21 -21 -21 -21 -20 -20 -19 -19 -19 -18 -17 -16 -16
Height
5809 5810 5811 5812 5812 5813 5814 5815 5815 5816 5816 5817 5818 5818 5819 5820 5820 5819 5819 5820 5820 5820 5820 5819 5819 5819 5819 5819 5818 5818 5818 5817 5818 5817 5817 5817 5816 5816 5815 5815 5814 5814 5813 5814 5812
5806 5807 5808 5808 5809 5810 5811 5811 5812 5813 5814 5814 5814 5814 5816 5816 5816 5815 5815 5815 5815 5815 5815 5815 5815 5814 5815 5815 5815 5814 5814 5813 5813 5812 5812 5811 5811 5811 5810 5810 5808 5808 5808 5808 5807
5803 5803 5804 5804 5805 5805 5806 5807 5808 5809 5810 5810 5810 5810 5811 5811 5811 5811 5810 5811 5811 5810 5810 5811 5810 5809 5809 5809 5809 5809 5808 5808 5808 5807 5807 5806 5805 5804 5804 5804 5801 5803 5802 5802 5802
5797 5798 5798 5799 5800 5800 5801 5802 5803 5804 5804 5804 5804 5805 5805 5805 5806 5805 5804 5805 5805 5804 5804 5805 5804 5803 5803 5803 5803 5802 5802 5801 5801 5801 5800 5800 5799 5798 5798 5795 5795 5795 5795 5795 5796
5791 5793 5793 5794 5794 5795 5795 5796 5797 5797 5798 5799 5799 5799 5799 5799 5799 5798 5798 5798 5798 5798 5797 5797 5796 5796 5796 5796 5795 5795 5795 5793 5794 5794 5793 5793 5792 5791 5791 5787 5789 5789 5787 5787 5788
5783 5784 5786 5787 5788 5788 5789 5790 5790 5791 5791 5791 5792 5792 5792 5792 5791 5791 5791 5791 5791 5791 5791 5791 5790 5789 5788 5788 5788 5787 5786 5786 5786 5786 5786 5786 5784 5784 5783 5782 5781 5782 5781 5781 5781
5775 5777 5778 5779 5780 5781 5782 5782 5783 5784 5784 5783 5783 5783 5783 5784 5784 5784 5783 5783 5783 5784 5785 5784 5783 5782 5782 5780 5781 5779 5779 5778 5779 5778 5779 5778 5780 5779 5776 5777 5776 5776 5775 5774 5774
5768 5769 5770 5770 5771 5771 5773 5773 5774 5775 5775 5775 5775 5775 5776 5776 5776 5777 5776 5776 5776 5776 5777 5776 5776 5775 5774 5774 5774 5773 5773 5772 5773 5772 5772 5771 5775 5772 5770 5770 5770 5770 5768 5768 5768
5761 5762 5762 5763 5764 5764 5765 5765 5766 5766 5767 5767 5768 5768 5769 5770 5770 5770 5769 5769 5769 5769 5768 5769 5769 5769 5769 5768 5768 5767 5767 5766 5765 5764 5764 5764 5768 5764 5763 5763 5763 5761 5762 5762 5760
5753 5754 5754 5756 5757 5758 5759 5758 5758 5759 5759 5760 5761 5763 5763 5763 5763 5763 5763 5762 5762 5762 5763 5763 5763 5763 5762 5762 5762 5761 5760 5759 5758 5760 5757 5758 5761 5759 5755 5758 5756 5755 5755 5754 5753
5742 5745 5745 5746 5748 5749 5750 5751 5752 5752 5752 5753 5754 5755 5755 5755 5756 5757 5757 5757 5757 5756 5756 5756 5756 5756 5755 5755 5754 5754 5753 5752 5751 5751 5751 5750 5753 5753 5750 5749 5749 5748 5747 5746 5744
5732 5734 5735 5737 5738 5739 5740 5741 5742 5742 5744 5743 5744 5745 5746 5747 5748 5749 5749 5750 5750 5749 5749 5750 5748 5749 5748 5748 5747 5747 5746 5746 5745 5744 5742 5743 5746 5744 5744 5743 5741 5740 5739 5737 5735
5722 5724 5724 5726 5728 5729 5730 5731 5732 5732 5732 5737 5736 5736 5737 5738 5738 5740 5741 5740 5741 5742 5742 5741 5742 5741 5740 5740 5740 5739 5739 5738 5736 5736 5734 5734 5736 5739 5735 5734 5734 5732 5730 5728 5726
5711 5714 5714 5715 5718 5718 5719 5720 5721 5722 5721 5724 5727 5726 5727 5728 5728 5729 5730 5731 5731 5732 5731 5731 5732 5732 5732 5732 5732 5732 5731 5729 5728 5728 5727 5729 5722 5732 5728 5727 5725 5724 5721 5719 5716
5699 5701 5704 5705 5706 5708 5710 5710 5710 5712 5709 5713 5715 5717 5717 5719 5719 5719 5720 5719 5720 5721 5723 5723 5722 5723 5723 5724 5723 5724 5723 5722 5720 5719 5717 5721 5717 5716 5718 5718 5717 5715 5713 5710 5707
5688 5689 5691 5693 5694 5697 5698 5700 5700 5703 5700 5704 5704 5706 5708 5709 5709 5710 5711 5711 5712 5712 5712 5713 5714 5715 5715 5715 5715 5714 5714 5713 5711 5709 5708 5710 5710 5710 5709 5708 5708 5707 5704 5701 5698
5674 5677 5679 5680 5682 5684 5686 5688 5690 5690 5693 5694 5694 5695 5697 5699 5700 5700 5701 5703 5704 5704 5704 5704 5705 5706 5706 5706 5706 5705 5704 5702 5702 5700 5701 5700 5699 5705 5702 5701 5699 5697 5694 5689 5687
5661 5663 5665 5667 5668 5670 5671 5674 5677 5680 5681 5682 5683 5684 5685 5687 5689 5690 5690 5691 5693 5694 5695 5695 5697 5697 5698 5698 5698 5697 5696 5695 5690 5691 5692 5692 5691 5694 5692 5692 5689 5688 5683 5678 5676
5650 5652 5654 5655 5657 5657 5659 5660 5664 5667 5668 5670 5671 5671 5673 5675 5676 5678 5679 5681 5680 5682 5684 5684 5686 5687 5688 5688 5689 5689 5688 5686 5682 5681 5678 5680 5683 5686 5682 5681 5679 5676 5672 5666 5663
5638 5641 5644 5644 5645 5646 5648 5650 5654 5654 5655 5656 5658 5659 5661 5662 5664 5665 5667 5668 5669 5670 5670 5672 5674 5675 5677 5677 5677 5676 5676 5676 5675 5671 5668 5669 5668 5670 5672 5670 5668 5665 5660 5655 5653
5626 5629 5633 5632 5633 5634 5637 5641 5644 5643 5644 5646 5647 5646 5648 5649 5650 5652 5653 5656 5655 5658 5659 5659 5660 5662 5664 5665 5665 5665 5664 5663 5663 5663 5659 5657 5662 5660 5660 5658 5656 5653 5647 5643 5643
5612 5616 5620 5620 5622 5624 5628 5631 5634 5634 5633 5634 5635 5636 5637 5637 5638 5639 5642 5642 5644 5645 5646 5645 5645 5648 5649 5649 5651 5652 5652 5652 5650 5651 5648 5646 5653 5656 5648 5648 5645 5640 5636 5633 5631
5595 5600 5604 5606 5608 5613 5616 5618 5619 5622 5622 5623 5623 5624 5625 5626 5625 5628 5629 5631 5630 5632 5632 5632 5633 5634 5636 5637 5636 5638 5639 5638 5638 5637 5638 5633 5642 5645 5637 5633 5634 5627 5627 5624 5621
5579 5583 5587 5589 5595 5598 5601 5605 5606 5609 5609 5610 5611 5612 5614 5614 5614 5614 5617 5617 5619 5619 5619 5619 5622 5623 5625 5623 5621 5624 5624 5624 5623 5623 5623 5623 5624 5639 5628 5618 5621 5618 5614 5611 5610
5563 5568 5571 5574 5579 5583 5585 5591 5592 5594 5595 5598 5599 5602 5600 5600 5602 5601 5603 5603 5605 5606 5606 5606 5609 5610 5613 5611 5609 5609 5612 5612 5610 5613 5604 5616 5609 5618 5609 5604 5605 5605 5605 5604 5600
5546 5552 5555 5560 5563 5566 5569 5577 5576 5579 5581 5585 5586 5586 5585 5588 5587 5585 5589 5590 5593 5595 5594 5594 5594 5595 5598 5598 5598 5598 5605 5600 5601 5599 5594 5596 5596 5594 5594 5590 5591 5592 5592 5592 5590
5530 5533 5533 5542 5545 5548 5556 5561 5562 5560 5566 5569 5571 5569 5572 5574 5571 5572 5573 5577 5579 5580 5581 5581 5582 5582 5583 5583 5583 5586 5597 5589 5589 5589 5586 5582 5583 5578 5582 5579 5576 5578 5578 5578 5577
Wind_Speed
14 14 14 14 14 15 15 15 14 14 15 15 16 16 17 18 19 18 19 20 20 20 20 20 21 21 21 22 22 21 20 21 23 23 24 23 22 21 23 25 26 26 28 25 23
19 18 18 18 18 18 19 19 19 20 21 21 21 21 23 23 22 21 21 22 21 22 22 22 22 23 24 25 25 25 23 24 25 25 26 26 25 23 25 26 29 28 29 28 27
23 23 23 23 22 22 21 21 21 22 23 24 25 25 26 25 25 24 24 25 25 25 25 26 26 26 26 28 28 28 28 28 27 28 29 29 28 27 26 26 32 29 29 29 30
27 28 27 27 27 27 26 25 24 24 24 25 26 27 27 28 28 28 29 29 29 29 29 31 31 31 30 31 32 32 31 32 31 31 32 33 31 30 26 29 31 30 31 31 31
30 30 30 30 31 31 31 31 30 30 29 29 29 30 31 31 31 31 32 32 33 32 32 32 33 34 35 33 34 33 34 36 34 33 34 33 32 30 26 32 30 29 32 32 31
34 33 33 33 32 32 33 34 35 36 36 36 35 34 35 33 34 35 35 35 35 34 32 31 29 29 30 31 31 31 32 34 34 33 33 32 31 28 30 31 31 31 32 31 31
30 32 34 35 36 36 35 35 35 36 36 37 38 38 38 38 38 39 39 39 39 38 35 31 29 29 29 30 30 29 27 28 28 29 28 29 26 27 31 31 32 32 31 30 31
33 32 31 32 32 33 35 36 37 38 38 38 38 39 39 38 38 38 38 37 38 38 36 33 30 29 27 26 25 26 25 25 25 27 28 28 22 28 32 32 32 31 32 32 33
37 36 34 33 32 31 31 31 31 32 35 36 37 38 37 38 37 36 34 31 31 30 29 28 27 25 24 24 24 25 26 25 26 27 27 29 22 30 32 31 30 32 34 35 38
42 40 37 35 35 34 34 33 33 32 31 31 32 33 33 33 33 32 31 29 27 26 25 26 26 26 26 26 26 27 27 26 28 27 30 31 27 28 36 31 31 32 34 36 38
41 42 42 40 39 37 37 36 37 36 35 35 35 35 34 34 33 32 31 30 30 30 29 29 29 29 28 29 30 31 31 31 33 33 34 34 30 29 35 35 34 34 35 37 40
41 43 42 42 40 40 41 41 41 40 38 38 38 39 39 39 39 38 37 36 35 35 35 34 33 31 32 32 32 34 35 35 36 37 38 35 31 31 31 33 34 35 36 37 40
44 44 45 43 42 41 42 43 45 44 43 40 40 41 40 41 42 41 40 39 39 39 39 39 35 35 35 35 35 36 36 37 38 38 40 39 36 29 32 32 32 34 35 37 38
43 44 44 45 45 44 45 44 43 45 46 45 42 43 41 39 40 41 41 40 39 39 39 39 37 38 38 37 38 38 38 39 39 39 40 37 43 30 32 31 31 31 32 34 37
42 44 45 43 41 41 41 41 42 42 45 43 43 40 38 36 34 34 35 34 34 34 35 37 36 36 36 36 37 37 37 39 39 40 42 37 41 39 32 27 28 29 31 36 39
45 43 43 43 42 44 44 42 42 42 44 41 40 37 36 35 35 32 30 30 31 30 30 30 31 31 31 32 34 36 37 38 39 41 42 38 38 36 30 26 26 29 34 39 41
52 50 49 48 46 47 46 48 46 46 44 43 41 39 37 36 35 35 35 37 37 37 36 35 35 34 34 34 34 36 36 38 39 40 39 38 38 29 30 29 31 31 36 43 45
43 45 46 50 50 51 50 51 52 48 46 45 45 46 46 43 42 41 39 38 40 41 40 40 38 37 37 37 37 36 36 37 41 42 40 40 40 35 36 33 33 37 41 46 46
40 40 38 39 39 39 41 49 50 45 44 45 45 45 45 45 44 44 44 43 42 42 45 45 45 44 43 42 42 40 40 40 42 43 45 45 43 39 38 38 36 31 41 48 48
45 45 42 41 41 41 42 43 40 38 39 40 42 44 44 43 44 47 47 48 48 48 47 48 49 49 48 46 44 42 43 43 44 46 49 47 47 44 41 37 35 34 41 47 47
46 46 44 45 45 46 45 42 38 38 39 39 40 42 42 41 43 44 47 45 48 49 50 51 52 54 52 50 50 48 48 48 48 48 50 52 49 47 44 39 36 32 43 47 43
53 51 49 49 51 50 48 44 43 41 43 43 43 41 41 42 43 44 42 43 42 43 48 50 54 55 55 56 56 54 52 50 51 53 54 55 53 44 45 42 30 40 45 46 42
60 58 54 54 54 52 50 48 47 45 44 45 45 44 42 43 45 43 42 42 45 44 45 46 49 51 53 54 55 55 55 55 55 55 56 57 53 47 49 50 45 44 41 44 42
64 62 60 59 55 53 52 49 49 48 48 48 48 46 45 45 46 49 47 46 45 46 47 48 48 48 49 50 55 53 51 52 54 57 57 59 58 47 50 54 46 41 45 43 43
65 65 64 63 60 58 57 55 54 53 52 50 50 48 48 49 47 48 48 48 48 48 50 50 51 50 47 47 49 50 52 52 54 51 55 54 56 54 56 58 54 51 48 47 46
68 66 66 64 62 61 61 57 58 56 55 53 53 52 51 51 51 52 51 52 51 48 49 50 52 51 51 47 46 47 45 47 50 49 52 52 54 49 52 55 54 51 49 48 51
68 67 69 65 64 64 59 57 57 59 56 55 54 55 54 52 53 54 55 54 54 52 51 51 50 50 52 52 50 49 46 47 45 40 42 47 49 52 52 51 52 50 49 51 52
Wind_Direction
253 248 246 245 243 240 242 246 247 248 247 248 249 252 255 257 263 267 269 269 270 271 272 273 273 274 273 274 271 269 266 262 262 266 270 273 275 279 284 287 290 288 285 282 267
256 256 255 251 250 251 252 251 250 251 253 254 256 257 260 263 266 269 271 272 274 275 276 274 272 271 275 275 272 269 267 264 264 265 269 273 279 284 285 289 284 284 284 280 262
255 257 256 257 257 255 255 256 258 259 259 259 261 263 263 263 265 267 267 268 269 272 274 276 275 274 273 274 275 273 272 271 269 271 273 276 279 281 283 283 280 283 278 276 263
254 254 255 256 256 258 257 256 257 260 263 264 264 265 266 268 266 265 268 269 270 272 274 275 275 273 274 275 274 274 273 271 271 273 273 274 276 277 278 272 277 278 276 277 266
254 255 254 252 254 255 256 257 259 260 261 261 263 263 264 265 267 267 268 270 271 273 275 277 277 274 272 274 272 273 272 269 269 270 271 272 271 273 270 272 277 272 274 273 268
258 256 257 257 255 253 254 254 256 258 257 261 262 262 265 269 268 269 269 269 270 272 275 275 276 273 270 270 271 270 270 266 267 269 269 269 268 272 266 272 274 274 272 272 269
257 257 255 256 257 258 257 257 258 258 259 260 261 263 265 270 272 270 270 270 269 268 270 271 272 270 271 270 270 269 266 265 264 265 267 267 268 272 272 272 273 274 272 268 262
258 256 257 256 255 256 258 259 259 259 260 261 263 265 267 268 269 269 270 268 267 268 266 268 269 271 270 269 266 266 264 263 262 265 267 269 272 274 279 277 276 272 268 267 266
259 256 253 253 253 253 254 256 259 260 260 260 260 262 262 264 264 264 264 262 261 261 262 264 264 264 267 269 268 265 264 262 262 265 268 272 277 279 280 281 278 272 269 270 272
259 259 257 256 256 255 254 252 252 254 256 259 262 263 262 260 260 260 260 260 259 258 259 260 263 265 268 271 270 268 267 267 269 267 272 274 278 281 282 284 277 273 270 269 271
256 257 257 257 258 258 256 256 255 253 255 257 259 260 261 263 263 264 265 265 265 264 265 265 267 268 268 268 270 270 271 272 273 275 274 275 278 278 281 284 278 274 271 273 276
258 257 258 257 257 259 260 260 259 258 256 259 259 261 262 264 264 266 268 269 268 268 269 267 267 268 268 268 269 270 272 273 273 275 276 277 279 281 280 279 280 279 278 279 280
260 260 258 258 259 262 263 261 261 261 260 257 261 261 263 265 267 267 267 268 269 268 267 268 268 267 267 269 271 272 274 273 274 274 276 279 277 279 279 279 279 276 277 278 279
256 259 258 259 261 263 263 263 263 263 264 262 261 265 266 268 269 269 268 267 267 266 265 265 265 265 265 268 270 271 273 274 276 277 278 278 281 278 278 280 277 274 274 277 281
258 259 259 256 256 258 261 262 265 265 267 266 267 267 268 269 270 271 268 265 263 263 262 263 262 263 266 268 270 270 271 272 274 276 278 281 283 289 290 282 277 277 280 283 287
260 260 259 259 260 257 257 259 263 265 265 266 268 267 266 270 272 270 267 263 260 257 256 258 260 260 262 265 268 270 271 273 275 277 278 281 280 283 289 282 279 279 283 284 286
262 261 263 261 261 261 260 260 261 262 266 266 266 265 264 267 269 266 266 264 258 261 262 260 261 262 263 263 266 269 273 276 276 277 279 280 279 284 284 284 290 289 290 288 291
259 259 258 259 260 262 263 264 263 263 263 261 263 266 267 265 264 264 261 262 265 265 261 259 258 263 265 267 267 268 270 274 276 278 279 278 280 286 288 293 293 295 292 289 291
258 258 256 254 254 254 255 258 262 261 261 263 262 261 263 262 260 258 260 260 259 259 263 265 265 265 264 267 269 270 272 272 271 273 277 279 281 281 288 292 297 291 288 288 292
256 257 258 257 257 254 252 256 258 259 259 257 258 259 259 259 258 259 257 257 257 257 257 261 264 267 268 267 266 268 268 269 272 275 274 274 278 283 287 291 296 295 288 288 291
255 255 254 258 258 259 260 261 259 260 258 257 257 257 258 257 257 256 256 255 256 257 259 260 258 261 262 263 265 265 266 268 270 270 273 276 277 282 292 295 295 288 288 287 292
259 259 257 258 260 259 261 263 261 260 262 262 261 259 260 261 262 261 263 264 262 261 257 256 259 260 262 263 264 266 266 267 268 269 270 272 276 282 283 289 284 289 284 287 290
260 259 257 256 258 260 260 260 260 260 260 260 261 263 264 265 267 267 266 267 267 266 265 263 262 263 263 265 265 266 267 267 268 268 268 271 272 280 283 286 291 280 281 281 284
257 258 258 258 258 258 258 257 257 257 258 258 260 261 262 264 266 267 268 268 269 270 269 269 268 269 269 272 269 267 268 269 270 270 271 270 272 270 276 278 278 280 285 283 287
256 256 256 256 257 258 258 257 256 257 258 258 260 263 263 264 265 266 265 266 266 268 270 271 271 271 270 271 272 273 272 273 271 275 275 271 275 273 275 277 275 275 278 282 284
254 255 254 255 254 255 256 256 257 257 259 260 260 261 261 262 263 264 263 264 265 268 270 271 272 273 272 270 270 271 275 279 276 278 282 281 275 281 275 277 277 277 274 279 285
250 251 252 251 252 252 253 254 255 256 255 258 259 259 260 262 261 262 264 265 266 268 269 270 271 272 272 272 270 268 272 272 276 280 283 284 285 283 280 283 283 280 276 275 278